QPF
0.03 0.03 0.04 0.05 0.03 0.02 0.02 0.02 0.01 0.01 0.01 0.02 0.02 0.03 0.04 0.04 0.03 0.03 0.05 0.06 0.06 0.06 0.07 0.07 0.07 0.06 0.05 0.04 0.04 0.04 0.04 0.04 0.04 0.04 0.04 0.03 0.02 0.03 0.03 0.04 0.03 0.03 0.03
0.03 0.04 0.06 0.05 0.02 0.02 0.02 0.02 0.01 0.01 0.02 0.03 0.04 0.04 0.04 0.03 0.03 0.03 0.03 0.03 0.04 0.06 0.06 0.05 0.04 0.04 0.03 0.02 0.02 0.02 0.02 0.02 0.03 0.04 0.04 0.03 0.03 0.03 0.03 0.04 0.04 0.03 0.03
0.02 0.04 0.04 0.03 0.03 0.03 0.03 0.03 0.02 0.02 0.03 0.04 0.05 0.04 0.03 0.03 0.02 0.02 0.02 0.02 0.03 0.03 0.04 0.04 0.03 0.02 0.02 0.02 0.02 0.02 0.02 0.03 0.03 0.03 0.04 0.04 0.04 0.03 0.03 0.04 0.04 0.04 0.04
0.02 0.02 0.01 0.02 0.02 0.03 0.03 0.02 0.03 0.03 0.03 0.03 0.03 0.02 0.01 0.01 0.01 0.02 0.02 0.02 0.03 0.03 0.03 0.02 0.02 0.02 0.02 0.02 0.02 0.02 0.03 0.04 0.04 0.04 0.06 0.07 0.07 0.07 0.06 0.06 0.06 0.06 0.07
0.01 0.01 0.01 0.01 0.01 0.02 0.02 0.03 0.03 0.03 0.02 0.02 0.02 0.02 0.02 0.02 0.02 0.02 0.02 0.03 0.03 0.04 0.04 0.03 0.04 0.04 0.04 0.04 0.04 0.04 0.05 0.06 0.08 0.08 0.07 0.07 0.07 0.07 0.06 0.06 0.06 0.05 0.05
0.00 0.01 0.01 0.02 0.01 0.01 0.01 0.02 0.02 0.02 0.03 0.03 0.02 0.02 0.02 0.02 0.02 0.03 0.04 0.04 0.04 0.04 0.04 0.05 0.05 0.05 0.05 0.05 0.05 0.05 0.07 0.08 0.09 0.08 0.07 0.06 0.05 0.05 0.05 0.05 0.04 0.04 0.04
0.01 0.01 0.02 0.03 0.02 0.02 0.01 0.01 0.02 0.02 0.02 0.02 0.02 0.02 0.02 0.02 0.03 0.03 0.04 0.04 0.04 0.03 0.03 0.03 0.03 0.03 0.04 0.05 0.05 0.05 0.05 0.06 0.07 0.06 0.04 0.03 0.03 0.03 0.04 0.05 0.05 0.04 0.04
0.01 0.01 0.01 0.02 0.02 0.02 0.01 0.01 0.01 0.01 0.01 0.02 0.02 0.02 0.02 0.02 0.03 0.03 0.04 0.03 0.03 0.03 0.03 0.03 0.02 0.02 0.03 0.04 0.04 0.04 0.04 0.03 0.04 0.03 0.02 0.01 0.01 0.01 0.02 0.02 0.04 0.05 0.05
0.01 0.01 0.01 0.01 0.02 0.03 0.02 0.02 0.02 0.02 0.01 0.02 0.02 0.02 0.02 0.02 0.03 0.03 0.03 0.03 0.03 0.03 0.03 0.02 0.02 0.01 0.02 0.02 0.02 0.02 0.02 0.02 0.02 0.02 0.01 0.01 0.01 0.01 0.02 0.02 0.02 0.02 0.02
0.02 0.01 0.01 0.01 0.02 0.03 0.02 0.02 0.02 0.02 0.02 0.02 0.02 0.02 0.03 0.03 0.04 0.03 0.02 0.02 0.02 0.03 0.03 0.02 0.02 0.02 0.02 0.02 0.02 0.02 0.02 0.02 0.02 0.01 0.01 0.01 0.01 0.01 0.01 0.01 0.01 0.01 0.01
0.02 0.01 0.01 0.01 0.01 0.01 0.01 0.01 0.01 0.01 0.02 0.02 0.02 0.03 0.04 0.04 0.04 0.03 0.02 0.01 0.01 0.02 0.02 0.02 0.01 0.01 0.01 0.01 0.01 0.01 0.02 0.02 0.01 0.01 0.01 0.00 0.01 0.01 0.01 0.01 0.01 0.01 0.01
0.00 0.01 0.01 0.01 0.00 0.01 0.01 0.01 0.01 0.02 0.02 0.02 0.02 0.02 0.02 0.02 0.02 0.02 0.02 0.01 0.01 0.01 0.01 0.01 0.01 0.01 0.01 0.01 0.01 0.01 0.02 0.01 0.01 0.01 0.01 0.01 0.01 0.01 0.01 0.01 0.01 0.01 0.01
0.00 0.00 0.00 0.00 0.01 0.01 0.01 0.01 0.01 0.01 0.02 0.02 0.02 0.02 0.02 0.02 0.01 0.01 0.01 0.01 0.01 0.01 0.01 0.01 0.02 0.03 0.02 0.01 0.01 0.02 0.02 0.02 0.02 0.01 0.01 0.01 0.01 0.01 0.01 0.01 0.01 0.01 0.01
0.00 0.00 0.00 0.01 0.01 0.01 0.00 0.01 0.01 0.01 0.01 0.01 0.02 0.02 0.01 0.01 0.01 0.01 0.01 0.01 0.01 0.01 0.01 0.02 0.04 0.05 0.04 0.02 0.02 0.02 0.02 0.02 0.02 0.02 0.01 0.01 0.01 0.01 0.01 0.01 0.01 0.01 0.01
0.00 0.00 0.01 0.01 0.01 0.00 0.00 0.00 0.01 0.01 0.01 0.01 0.01 0.02 0.01 0.01 0.01 0.01 0.01 0.01 0.01 0.01 0.02 0.02 0.03 0.05 0.04 0.03 0.03 0.03 0.02 0.03 0.03 0.03 0.02 0.02 0.02 0.01 0.01 0.01 0.01 0.01 0.02
0.00 0.00 0.01 0.01 0.01 0.00 0.01 0.01 0.01 0.01 0.01 0.01 0.01 0.01 0.01 0.01 0.01 0.01 0.01 0.01 0.01 0.01 0.01 0.01 0.01 0.02 0.03 0.03 0.04 0.04 0.04 0.03 0.04 0.04 0.03 0.02 0.02 0.01 0.01 0.01 0.01 0.01 0.01
0.00 0.01 0.01 0.01 0.01 0.01 0.01 0.01 0.00 0.01 0.01 0.01 0.01 0.01 0.01 0.02 0.02 0.01 0.01 0.01 0.02 0.02 0.01 0.01 0.01 0.01 0.01 0.01 0.02 0.03 0.02 0.02 0.02 0.02 0.01 0.01 0.01 0.01 0.01 0.01 0.01 0.01 0.01
0.01 0.01 0.02 0.02 0.01 0.01 0.01 0.01 0.00 0.01 0.01 0.01 0.01 0.01 0.01 0.01 0.01 0.01 0.01 0.01 0.02 0.02 0.02 0.01 0.01 0.01 0.01 0.01 0.01 0.01 0.01 0.00 0.01 0.01 0.01 0.00 0.00 0.00 0.00 0.00 0.00 0.01 0.01
0.01 0.01 0.02 0.03 0.02 0.01 0.01 0.01 0.01 0.01 0.01 0.01 0.01 0.01 0.01 0.00 0.01 0.01 0.01 0.02 0.03 0.02 0.01 0.01 0.01 0.01 0.01 0.01 0.01 0.00 0.00 0.00 0.00 0.00 0.00 0.00 0.00 0.00 0.00 0.00 0.00 0.00 0.01
0.01 0.02 0.02 0.02 0.01 0.00 0.00 0.00 0.01 0.01 0.01 0.01 0.01 0.01 0.01 0.01 0.00 0.00 0.01 0.01 0.02 0.02 0.03 0.02 0.01 0.01 0.01 0.01 0.01 0.01 0.01 0.01 0.00 0.00 0.00 0.00 0.01 0.01 0.00 0.00 0.01 0.01 0.01
0.01 0.02 0.02 0.01 0.01 0.00 0.00 0.01 0.01 0.01 0.01 0.01 0.01 0.01 0.00 0.00 0.00 0.00 0.00 0.01 0.01 0.01 0.01 0.02 0.02 0.01 0.01 0.01 0.01 0.01 0.01 0.01 0.01 0.01 0.01 0.01 0.01 0.01 0.02 0.02 0.02 0.02 0.01
0.03 0.03 0.02 0.01 0.01 0.01 0.00 0.01 0.01 0.01 0.01 0.01 0.01 0.00 0.00 0.00 0.00 0.01 0.01 0.01 0.01 0.01 0.01 0.01 0.01 0.01 0.01 0.01 0.01 0.02 0.02 0.02 0.02 0.02 0.02 0.03 0.03 0.03 0.03 0.02 0.02 0.01 0.01
0.04 0.04 0.02 0.01 0.02 0.01 0.01 0.00 0.00 0.01 0.01 0.01 0.00 0.00 0.00 0.00 0.00 0.01 0.01 0.01 0.01 0.01 0.01 0.01 0.01 0.00 0.01 0.01 0.01 0.01 0.02 0.02 0.02 0.02 0.02 0.02 0.02 0.02 0.01 0.00 0.00 0.01 0.01
0.03 0.02 0.02 0.01 0.02 0.02 0.01 0.01 0.01 0.01 0.00 0.00 0.00 0.00 0.00 0.00 0.01 0.01 0.01 0.01 0.01 0.01 0.00 0.00 0.00 0.00 0.00 0.00 0.01 0.01 0.02 0.02 0.02 0.02 0.01 0.01 0.01 0.00 0.00 0.00 0.00 0.00 0.00
0.02 0.01 0.01 0.01 0.01 0.01 0.01 0.01 0.01 0.01 0.00 0.00 0.00 0.00 0.00 0.00 0.01 0.01 0.01 0.01 0.01 0.00 0.00 0.00 0.00 0.00 0.00 0.01 0.01 0.01 0.01 0.02 0.01 0.01 0.01 0.01 0.01 0.00 0.00 0.00 0.00 0.00 0.00
0.01 0.02 0.01 0.01 0.01 0.01 0.01 0.01 0.01 0.01 0.01 0.01 0.01 0.01 0.01 0.01 0.01 0.01 0.01 0.01 0.00 0.00 0.00 0.00 0.00 0.00 0.00 0.01 0.01 0.01 0.01 0.01 0.01 0.01 0.01 0.01 0.00 0.00 0.00 0.00 0.00 0.01 0.01
MSLP
1017.27 1017.59 1017.94 1018.29 1018.60 1018.88 1019.11 1019.31 1019.48 1019.63 1019.76 1019.87 1019.94 1019.98 1019.99 1019.95 1019.90 1019.83 1019.77 1019.74 1019.74 1019.77 1019.82 1019.87 1019.89 1019.85 1019.75 1019.57 1019.32 1019.02 1018.69 1018.35 1018.02 1017.71 1017.41 1017.12 1016.81 1016.49 1016.13 1015.73 1015.31 1014.88 1014.46
1017.67 1017.93 1018.23 1018.52 1018.80 1019.05 1019.26 1019.43 1019.57 1019.67 1019.74 1019.78 1019.78 1019.76 1019.70 1019.63 1019.55 1019.49 1019.44 1019.43 1019.45 1019.49 1019.53 1019.56 1019.55 1019.48 1019.35 1019.15 1018.90 1018.63 1018.34 1018.06 1017.80 1017.56 1017.33 1017.09 1016.83 1016.53 1016.18 1015.78 1015.36 1014.92 1014.49
1018.04 1018.27 1018.52 1018.78 1019.02 1019.24 1019.41 1019.55 1019.64 1019.69 1019.70 1019.67 1019.60 1019.52 1019.42 1019.32 1019.23 1019.17 1019.14 1019.14 1019.17 1019.21 1019.24 1019.25 1019.20 1019.10 1018.93 1018.72 1018.47 1018.21 1017.97 1017.74 1017.54 1017.36 1017.19 1017.01 1016.79 1016.52 1016.19 1015.81 1015.39 1014.96 1014.53
1018.32 1018.54 1018.77 1018.99 1019.20 1019.38 1019.52 1019.61 1019.65 1019.65 1019.61 1019.52 1019.41 1019.29 1019.16 1019.05 1018.95 1018.90 1018.87 1018.88 1018.91 1018.94 1018.94 1018.91 1018.82 1018.68 1018.48 1018.25 1018.00 1017.75 1017.53 1017.34 1017.20 1017.07 1016.96 1016.83 1016.66 1016.43 1016.14 1015.78 1015.38 1014.96 1014.54
1018.47 1018.69 1018.90 1019.10 1019.27 1019.41 1019.50 1019.55 1019.56 1019.52 1019.44 1019.33 1019.20 1019.06 1018.92 1018.80 1018.71 1018.65 1018.63 1018.63 1018.64 1018.63 1018.60 1018.52 1018.39 1018.20 1017.97 1017.71 1017.45 1017.21 1017.00 1016.85 1016.74 1016.67 1016.60 1016.52 1016.40 1016.22 1015.97 1015.66 1015.30 1014.91 1014.51
1018.44 1018.66 1018.87 1019.03 1019.17 1019.27 1019.32 1019.34 1019.32 1019.27 1019.18 1019.07 1018.94 1018.81 1018.68 1018.56 1018.47 1018.41 1018.36 1018.34 1018.31 1018.26 1018.17 1018.04 1017.86 1017.63 1017.36 1017.08 1016.81 1016.58 1016.39 1016.26 1016.18 1016.14 1016.11 1016.07 1016.00 1015.87 1015.67 1015.42 1015.11 1014.76 1014.39
1018.23 1018.45 1018.64 1018.77 1018.87 1018.93 1018.96 1018.96 1018.93 1018.88 1018.80 1018.71 1018.61 1018.49 1018.38 1018.27 1018.18 1018.10 1018.02 1017.96 1017.88 1017.78 1017.64 1017.46 1017.23 1016.96 1016.67 1016.38 1016.11 1015.88 1015.70 1015.58 1015.52 1015.50 1015.50 1015.49 1015.46 1015.37 1015.23 1015.03 1014.77 1014.48 1014.15
1017.86 1018.07 1018.22 1018.33 1018.39 1018.43 1018.43 1018.42 1018.40 1018.36 1018.31 1018.24 1018.17 1018.08 1017.98 1017.88 1017.78 1017.67 1017.57 1017.45 1017.32 1017.16 1016.98 1016.75 1016.50 1016.22 1015.92 1015.64 1015.37 1015.15 1014.99 1014.88 1014.82 1014.80 1014.80 1014.81 1014.79 1014.73 1014.63 1014.47 1014.27 1014.03 1013.75
1017.38 1017.56 1017.69 1017.76 1017.79 1017.80 1017.79 1017.77 1017.76 1017.74 1017.71 1017.68 1017.63 1017.56 1017.47 1017.37 1017.25 1017.11 1016.97 1016.80 1016.63 1016.43 1016.21 1015.97 1015.71 1015.44 1015.17 1014.90 1014.66 1014.45 1014.29 1014.18 1014.11 1014.08 1014.06 1014.05 1014.02 1013.96 1013.88 1013.75 1013.58 1013.38 1013.15
1016.86 1017.02 1017.11 1017.15 1017.15 1017.14 1017.11 1017.09 1017.08 1017.07 1017.06 1017.04 1017.00 1016.94 1016.85 1016.73 1016.58 1016.42 1016.23 1016.04 1015.83 1015.62 1015.39 1015.16 1014.92 1014.68 1014.44 1014.21 1014.00 1013.82 1013.66 1013.53 1013.43 1013.36 1013.30 1013.24 1013.17 1013.09 1012.98 1012.86 1012.71 1012.54 1012.34
1016.38 1016.50 1016.56 1016.57 1016.54 1016.51 1016.47 1016.43 1016.41 1016.40 1016.38 1016.35 1016.31 1016.23 1016.12 1015.98 1015.81 1015.61 1015.41 1015.19 1014.98 1014.77 1014.57 1014.37 1014.17 1013.98 1013.79 1013.61 1013.43 1013.26 1013.09 1012.94 1012.80 1012.66 1012.53 1012.40 1012.27 1012.13 1011.99 1011.84 1011.68 1011.51 1011.34
1015.99 1016.07 1016.09 1016.08 1016.03 1015.97 1015.91 1015.85 1015.80 1015.76 1015.72 1015.66 1015.58 1015.47 1015.33 1015.16 1014.96 1014.75 1014.54 1014.33 1014.13 1013.95 1013.79 1013.64 1013.50 1013.37 1013.23 1013.09 1012.94 1012.77 1012.59 1012.40 1012.20 1011.99 1011.77 1011.56 1011.35 1011.14 1010.93 1010.74 1010.55 1010.37 1010.20
1015.70 1015.75 1015.75 1015.71 1015.64 1015.55 1015.46 1015.37 1015.28 1015.19 1015.09 1014.98 1014.86 1014.70 1014.52 1014.32 1014.11 1013.89 1013.69 1013.50 1013.33 1013.20 1013.09 1013.00 1012.92 1012.85 1012.76 1012.65 1012.51 1012.34 1012.13 1011.89 1011.63 1011.35 1011.05 1010.75 1010.45 1010.17 1009.90 1009.65 1009.42 1009.21 1009.02
1015.51 1015.53 1015.51 1015.45 1015.36 1015.24 1015.11 1014.98 1014.83 1014.68 1014.52 1014.35 1014.16 1013.96 1013.74 1013.52 1013.30 1013.09 1012.91 1012.76 1012.64 1012.56 1012.50 1012.47 1012.44 1012.40 1012.34 1012.25 1012.11 1011.92 1011.69 1011.41 1011.09 1010.74 1010.38 1010.01 1009.65 1009.30 1008.97 1008.66 1008.38 1008.13 1007.91
1015.40 1015.40 1015.36 1015.28 1015.16 1015.02 1014.85 1014.67 1014.46 1014.25 1014.02 1013.78 1013.53 1013.28 1013.04 1012.80 1012.59 1012.40 1012.25 1012.14 1012.07 1012.04 1012.03 1012.04 1012.04 1012.02 1011.97 1011.87 1011.72 1011.52 1011.25 1010.94 1010.58 1010.20 1009.80 1009.39 1008.98 1008.59 1008.21 1007.87 1007.55 1007.25 1006.98
1015.31 1015.29 1015.24 1015.15 1015.02 1014.85 1014.65 1014.42 1014.16 1013.88 1013.59 1013.29 1013.00 1012.71 1012.45 1012.21 1012.01 1011.85 1011.74 1011.67 1011.64 1011.64 1011.66 1011.69 1011.69 1011.67 1011.61 1011.50 1011.32 1011.10 1010.81 1010.49 1010.12 1009.73 1009.32 1008.90 1008.49 1008.09 1007.70 1007.32 1006.96 1006.63 1006.30
1015.19 1015.16 1015.11 1015.02 1014.88 1014.70 1014.47 1014.21 1013.91 1013.59 1013.25 1012.91 1012.57 1012.27 1011.99 1011.76 1011.57 1011.44 1011.36 1011.32 1011.32 1011.34 1011.37 1011.38 1011.37 1011.33 1011.23 1011.09 1010.90 1010.65 1010.36 1010.04 1009.69 1009.32 1008.94 1008.55 1008.17 1007.78 1007.39 1007.01 1006.63 1006.25 1005.87
1015.01 1014.98 1014.93 1014.85 1014.72 1014.54 1014.31 1014.03 1013.70 1013.35 1012.98 1012.62 1012.26 1011.94 1011.67 1011.44 1011.27 1011.16 1011.09 1011.07 1011.07 1011.08 1011.09 1011.07 1011.03 1010.94 1010.81 1010.64 1010.42 1010.17 1009.89 1009.59 1009.27 1008.95 1008.62 1008.29 1007.95 1007.59 1007.23 1006.85 1006.45 1006.04 1005.61
1014.73 1014.72 1014.69 1014.62 1014.51 1014.35 1014.13 1013.85 1013.52 1013.16 1012.79 1012.41 1012.05 1011.72 1011.44 1011.22 1011.06 1010.94 1010.88 1010.84 1010.82 1010.80 1010.77 1010.71 1010.61 1010.48 1010.30 1010.10 1009.86 1009.61 1009.35 1009.08 1008.82 1008.55 1008.29 1008.01 1007.72 1007.41 1007.08 1006.71 1006.30 1005.86 1005.39
1014.35 1014.36 1014.35 1014.32 1014.24 1014.10 1013.91 1013.65 1013.34 1012.98 1012.61 1012.23 1011.87 1011.54 1011.26 1011.03 1010.85 1010.72 1010.63 1010.56 1010.50 1010.43 1010.34 1010.22 1010.06 1009.88 1009.66 1009.43 1009.18 1008.94 1008.70 1008.47 1008.25 1008.05 1007.83 1007.61 1007.37 1007.10 1006.78 1006.42 1006.01 1005.55 1005.05
1013.85 1013.89 1013.92 1013.92 1013.88 1013.78 1013.61 1013.38 1013.09 1012.75 1012.39 1012.02 1011.65 1011.32 1011.02 1010.78 1010.57 1010.41 1010.27 1010.15 1010.03 1009.89 1009.74 1009.55 1009.34 1009.10 1008.85 1008.59 1008.34 1008.11 1007.89 1007.70 1007.52 1007.35 1007.18 1006.99 1006.77 1006.52 1006.21 1005.85 1005.43 1004.96 1004.45
1013.25 1013.31 1013.37 1013.41 1013.40 1013.33 1013.19 1012.99 1012.72 1012.40 1012.05 1011.68 1011.32 1010.97 1010.65 1010.38 1010.13 1009.92 1009.73 1009.54 1009.35 1009.14 1008.92 1008.67 1008.40 1008.13 1007.85 1007.58 1007.33 1007.10 1006.90 1006.72 1006.57 1006.42 1006.26 1006.08 1005.86 1005.60 1005.28 1004.91 1004.48 1004.01 1003.50
1012.54 1012.63 1012.71 1012.76 1012.78 1012.73 1012.61 1012.42 1012.17 1011.86 1011.51 1011.15 1010.77 1010.41 1010.07 1009.76 1009.47 1009.20 1008.95 1008.69 1008.43 1008.16 1007.88 1007.58 1007.27 1006.97 1006.67 1006.40 1006.15 1005.93 1005.74 1005.57 1005.41 1005.26 1005.08 1004.88 1004.64 1004.34 1004.00 1003.60 1003.16 1002.69 1002.19
1011.75 1011.84 1011.93 1011.99 1012.00 1011.95 1011.83 1011.64 1011.39 1011.08 1010.74 1010.37 1009.99 1009.61 1009.25 1008.90 1008.57 1008.26 1007.95 1007.64 1007.32 1007.00 1006.67 1006.34 1006.01 1005.69 1005.39 1005.12 1004.88 1004.66 1004.48 1004.30 1004.13 1003.95 1003.74 1003.49 1003.20 1002.85 1002.45 1002.02 1001.55 1001.06 1000.57
1010.89 1010.98 1011.05 1011.08 1011.07 1010.99 1010.85 1010.65 1010.39 1010.08 1009.73 1009.36 1008.97 1008.59 1008.21 1007.85 1007.49 1007.14 1006.79 1006.44 1006.09 1005.74 1005.38 1005.04 1004.70 1004.39 1004.10 1003.85 1003.62 1003.42 1003.23 1003.04 1002.85 1002.62 1002.36 1002.04 1001.67 1001.25 1000.79 1000.29 999.78 999.27 998.77
1010.00 1010.05 1010.08 1010.07 1010.01 1009.89 1009.72 1009.48 1009.20 1008.88 1008.53 1008.16 1007.78 1007.41 1007.03 1006.66 1006.30 1005.94 1005.58 1005.21 1004.85 1004.49 1004.14 1003.80 1003.48 1003.19 1002.93 1002.70 1002.49 1002.30 1002.11 1001.91 1001.68 1001.40 1001.07 1000.67 1000.22 999.70 999.15 998.57 997.99 997.43 996.90
Thickness
5663 5662 5660 5658 5656 5654 5652 5651 5649 5647 5645 5643 5641 5639 5638 5636 5634 5633 5631 5631 5630 5629 5627 5626 5624 5623 5621 5619 5618 5616 5614 5612 5611 5613 5613 5614 5614 5615 5617 5617 5618 5619 5620
5660 5659 5657 5654 5653 5651 5649 5648 5646 5643 5641 5639 5637 5635 5633 5631 5630 5628 5627 5626 5625 5623 5622 5621 5620 5619 5616 5615 5613 5612 5610 5608 5606 5606 5606 5606 5608 5609 5609 5610 5611 5612 5613
5658 5655 5653 5651 5649 5647 5645 5644 5642 5639 5636 5634 5632 5630 5629 5627 5626 5624 5623 5621 5620 5619 5618 5616 5615 5614 5612 5610 5609 5608 5606 5604 5601 5600 5600 5599 5600 5601 5601 5602 5604 5604 5606
5656 5653 5650 5648 5645 5643 5641 5638 5636 5634 5631 5629 5627 5626 5624 5623 5622 5620 5619 5617 5616 5615 5614 5612 5611 5610 5609 5607 5606 5604 5601 5598 5596 5594 5594 5593 5593 5593 5593 5594 5595 5596 5598
5652 5650 5647 5644 5642 5639 5636 5633 5630 5628 5627 5624 5623 5622 5621 5619 5618 5617 5615 5614 5612 5611 5609 5608 5607 5607 5606 5604 5602 5600 5597 5594 5591 5589 5588 5587 5587 5586 5586 5586 5587 5589 5590
5649 5646 5644 5641 5638 5635 5632 5629 5627 5624 5622 5620 5618 5617 5616 5616 5615 5613 5612 5610 5609 5607 5606 5604 5603 5602 5601 5599 5598 5596 5593 5590 5587 5584 5583 5582 5582 5581 5580 5580 5580 5580 5582
5647 5644 5641 5638 5635 5632 5630 5627 5623 5621 5618 5616 5614 5612 5611 5611 5610 5609 5609 5607 5605 5604 5602 5600 5600 5599 5597 5594 5592 5590 5587 5585 5583 5581 5579 5578 5577 5576 5574 5574 5574 5574 5576
5643 5641 5638 5635 5633 5630 5627 5623 5620 5617 5614 5612 5610 5609 5608 5607 5606 5606 5605 5603 5602 5600 5599 5597 5594 5593 5592 5589 5587 5585 5582 5580 5578 5576 5575 5574 5572 5571 5570 5569 5568 5567 5568
5641 5638 5636 5633 5630 5627 5624 5620 5617 5614 5611 5609 5607 5606 5605 5604 5603 5602 5600 5599 5597 5595 5594 5592 5590 5588 5586 5584 5582 5579 5577 5575 5573 5571 5570 5568 5566 5565 5564 5563 5562 5561 5564
5638 5636 5634 5631 5628 5625 5621 5618 5614 5611 5608 5607 5605 5603 5602 5601 5600 5598 5597 5595 5593 5591 5589 5587 5585 5584 5581 5578 5576 5574 5572 5570 5568 5566 5564 5562 5561 5560 5558 5557 5557 5556 5557
5636 5634 5632 5629 5626 5622 5618 5615 5611 5608 5605 5603 5602 5600 5599 5598 5597 5595 5593 5590 5588 5586 5584 5582 5580 5578 5575 5573 5570 5569 5567 5564 5562 5560 5558 5556 5555 5554 5553 5552 5551 5551 5551
5634 5632 5629 5627 5624 5621 5616 5613 5609 5605 5602 5600 5598 5597 5597 5595 5593 5592 5590 5586 5584 5581 5579 5577 5574 5572 5570 5567 5565 5563 5561 5558 5556 5554 5552 5551 5550 5549 5548 5547 5546 5546 5545
5631 5628 5626 5624 5620 5617 5613 5610 5606 5602 5599 5598 5596 5594 5593 5592 5590 5588 5586 5583 5580 5577 5575 5572 5569 5567 5564 5562 5560 5558 5555 5553 5551 5549 5548 5547 5545 5544 5543 5542 5541 5540 5540
5626 5624 5622 5619 5616 5613 5610 5607 5603 5600 5598 5596 5593 5591 5589 5588 5586 5585 5582 5580 5577 5574 5571 5568 5565 5562 5560 5557 5555 5553 5551 5548 5547 5545 5544 5542 5541 5539 5538 5538 5537 5536 5536
5623 5621 5619 5616 5613 5610 5607 5604 5601 5599 5596 5593 5591 5588 5586 5585 5584 5581 5578 5576 5573 5570 5566 5563 5560 5557 5555 5552 5550 5548 5546 5544 5542 5540 5539 5538 5536 5535 5534 5533 5531 5531 5531
5620 5618 5615 5613 5610 5607 5604 5602 5600 5597 5594 5591 5588 5585 5583 5581 5579 5577 5574 5571 5568 5565 5561 5558 5555 5552 5549 5547 5544 5543 5541 5539 5538 5536 5534 5533 5531 5530 5529 5528 5527 5527 5527
5616 5615 5612 5610 5607 5604 5601 5598 5596 5595 5592 5589 5585 5582 5580 5578 5575 5573 5570 5566 5562 5559 5556 5554 5551 5548 5545 5542 5540 5538 5537 5535 5533 5532 5530 5528 5527 5526 5525 5524 5523 5523 5523
5614 5612 5610 5607 5604 5601 5598 5595 5592 5590 5588 5586 5583 5580 5577 5575 5572 5569 5566 5563 5559 5554 5552 5550 5547 5544 5541 5538 5536 5535 5533 5531 5529 5527 5526 5524 5522 5521 5520 5519 5519 5518 5518
5611 5609 5607 5604 5601 5598 5595 5592 5589 5586 5584 5581 5579 5577 5574 5572 5569 5565 5561 5558 5556 5553 5549 5546 5544 5541 5538 5535 5533 5530 5528 5527 5525 5523 5522 5520 5519 5517 5516 5516 5515 5512 5512
5608 5607 5604 5602 5599 5596 5593 5590 5587 5583 5580 5578 5576 5573 5571 5569 5566 5562 5558 5555 5552 5549 5547 5544 5542 5539 5536 5533 5530 5527 5525 5523 5521 5519 5518 5516 5515 5513 5512 5511 5510 5510 5509
5605 5603 5601 5599 5596 5593 5590 5587 5584 5581 5578 5576 5573 5571 5567 5565 5562 5560 5557 5553 5550 5548 5545 5542 5539 5536 5534 5530 5528 5525 5522 5520 5518 5516 5514 5512 5511 5509 5508 5506 5505 5505 5505
5601 5600 5597 5595 5592 5590 5587 5584 5581 5578 5576 5573 5571 5569 5564 5562 5560 5557 5554 5552 5549 5545 5543 5539 5537 5534 5531 5528 5525 5522 5519 5517 5515 5513 5511 5509 5507 5506 5504 5503 5503 5503 5503
5597 5596 5594 5592 5590 5587 5585 5582 5579 5576 5573 5570 5568 5565 5563 5560 5557 5555 5552 5549 5546 5543 5540 5537 5534 5531 5528 5525 5522 5519 5516 5514 5512 5509 5507 5506 5505 5503 5502 5501 5501 5501 5500
5594 5592 5591 5589 5586 5584 5582 5579 5576 5573 5570 5567 5565 5562 5559 5556 5554 5552 5549 5546 5543 5540 5537 5534 5531 5529 5526 5522 5519 5516 5514 5511 5509 5507 5505 5503 5502 5501 5500 5499 5499 5498 5497
5590 5588 5587 5585 5583 5580 5578 5576 5573 5570 5568 5565 5562 5560 5557 5554 5552 5549 5546 5543 5540 5537 5535 5532 5529 5527 5524 5521 5518 5515 5512 5509 5507 5505 5503 5501 5500 5499 5498 5497 5496 5496 5495
5586 5585 5583 5581 5579 5577 5574 5572 5570 5567 5565 5562 5560 5557 5555 5552 5550 5547 5543 5540 5537 5535 5532 5530 5527 5525 5522 5519 5516 5513 5510 5508 5505 5503 5501 5499 5498 5497 5496 5495 5494 5493 5492